This demonstration page uses our WeatherBlox Daily Observations layout. Learn more.

Left ArrowRight Arrow

39.51506, -84.39828

Hourly Observations for July 19, 2015

Temp ( °F °C ) Dew Point ( °F °C ) Humidity (%) Winds ( mph kmh ) Pressure ( in mb ) Visibility ( mi km ) Precip ( " mm )
12:15 am 00:15 Mostly Cloudy 74 23.6 68 19.8 79 79 S 7 11 29.97 1015 10 16 N/A
12:35 am 00:35 Cloudy 74 23.6 68 20.1 81 81 S 7 11 29.97 1015 10 16 N/A
12:55 am 00:55 Mostly Cloudy 74 23.6 68 20.2 81 81 S 5 7 29.97 1015 10 16 N/A
1:15 am 01:15 Mostly Cloudy 74 23.6 68 20.2 81 81 N N/A 29.97 1015 10 16 N/A
1:35 am 01:35 Mostly Cloudy 74 23.6 69 20.5 83 83 SSW 5 7 29.94 1014 10 16 N/A
1:55 am 01:55 Mostly Cloudy 74 23.6 69 20.4 82 82 W 3 6 29.94 1014 10 16 N/A
2:15 am 02:15 Partly Cloudy 74 23.6 70 20.9 85 85 WSW 3 6 29.94 1014 10 16 N/A
2:35 am 02:35 Mostly Cloudy 74 23.6 70 21 85 85 SSW 6 9 29.94 1014 10 16 N/A
2:55 am 02:55 Cloudy 74 23.6 69 20.6 83 83 SSW 7 11 29.94 1014 10 16 N/A
3:15 am 03:15 Cloudy 74 23.6 69 20.6 83 83 WSW 6 9 29.91 1013 10 16 N/A
3:35 am 03:35 Mostly Cloudy 74 23.6 70 21 85 85 SW 5 7 29.91 1013 10 16 N/A
3:55 am 03:55 Cloudy 74 23.6 70 20.9 85 85 SW 5 7 29.91 1013 10 16 N/A
4:15 am 04:15 Mostly Cloudy 74 23.6 70 21.1 86 86 WSW 5 7 29.91 1013 10 16 N/A
4:35 am 04:35 Cloudy 74 23.6 70 21.2 86 86 WSW 5 7 29.91 1013 10 16 N/A
4:55 am 04:55 Partly Cloudy 74 23.6 70 21.2 86 86 SW 5 7 29.91 1013 10 16 N/A
5:15 am 05:15 Clear 74 23.6 71 21.5 88 88 SW 6 9 29.91 1013 10 16 N/A
5:35 am 05:35 Clear 74 23.6 71 21.5 88 88 WSW 3 6 29.91 1013 7 11 N/A
5:55 am 05:55 Clear 74 23.6 71 21.6 89 89 SW 3 6 29.91 1013 10 16 N/A
6:15 am 06:15 Clear 74 23.6 71 21.5 88 88 SW 5 7 29.91 1013 10 16 N/A
6:35 am 06:35 Sunny 74 23.6 71 21.5 88 88 WSW 5 7 29.91 1013 7 11 N/A
6:55 am 06:55 Sunny 74 23.6 71 21.6 89 89 WSW 5 7 29.91 1013 7 11 N/A
7:15 am 07:15 Sunny with Mist and Fog 74 23.6 71 21.6 89 89 WSW 6 9 29.91 1013 5 8 N/A
7:35 am 07:35 Sunny 74 23.6 71 21.6 89 89 SW 5 7 29.94 1014 7 11 N/A
7:55 am 07:55 Sunny 75 23.9 71 21.5 86 86 SW 6 9 29.94 1014 10 16 N/A
8:15 am 08:15 Partly Cloudy 77 25.1 72 22.2 84 84 SW 6 9 29.94 1014 10 16 N/A
8:35 am 08:35 Partly Cloudy 77 25.1 72 22.1 83 83 SW 6 9 29.94 1014 10 16 N/A
8:55 am 08:55 Mostly Cloudy 77 25.1 72 22 83 83 SW 5 7 29.91 1013 10 16 N/A
9:15 am 09:15 Partly Cloudy 80 26.5 73 23 81 81 SW 6 9 29.91 1013 10 16 N/A
9:35 am 09:35 Sunny 80 26.5 74 23.1 82 82 SW 6 9 29.94 1014 10 16 N/A
9:55 am 09:55 Sunny 80 26.5 73 22.9 81 81 SW 6 9 29.94 1014 10 16 N/A
10:15 am 10:15 Sunny 81 27.2 74 23.3 79 79 SW 6 9 29.94 1014 10 16 N/A
10:35 am 10:35 Sunny 82 28 75 23.7 78 78 SW 6 9 29.88 1012 10 16 N/A
10:55 am 10:55 Sunny 83 28.6 75 23.7 75 75 SW 5 7 29.88 1012 10 16 N/A
11:15 am 11:15 Sunny 84 28.8 75 23.9 75 75 SSW 6 9 29.88 1012 10 16 N/A
11:35 am 11:35 Sunny 85 29.2 75 24 74 74 NW 7 11 29.88 1012 10 16 N/A
11:55 am 11:55 Sunny 87 30.8 78 25.5 73 73 W 5 7 29.88 1012 10 16 N/A
12:15 pm 12:15 Sunny 90 32.1 80 26.4 72 72 W 6 9 29.88 1012 10 16 N/A
12:35 pm 12:35 Mostly Cloudy 90 32.1 78 25.7 69 69 W 7 11 29.88 1012 10 16 N/A
12:55 pm 12:55 Mostly Cloudy 89 31.8 80 26.4 73 73 WSW 6 9 29.88 1012 10 16 N/A
1:15 pm 13:15 Mostly Cloudy with Light Rain 90 32.1 79 26.1 71 71 WSW 9 15 29.88 1012 10 16 N/A
1:35 pm 13:35 Mostly Cloudy with Light Rain 82 28 75 23.7 78 78 SSW 7 11 29.88 1012 10 16 N/A
1:55 pm 13:55 Mostly Cloudy 84 28.8 78 25.6 83 83 W 13 20 29.85 1011 10 16 N/A
2:15 pm 14:15 Mostly Cloudy with Light Rain 83 28.2 73 23 73 73 W 10 17 29.88 1012 5 8 N/A
2:35 pm 14:35 Partly Cloudy 84 28.8 77 24.8 79 79 W 7 11 29.88 1012 10 16 N/A
2:55 pm 14:55 Partly Cloudy 90 32.1 81 27 74 74 WSW 10 17 29.88 1012 10 16 N/A
3:15 pm 15:15 Mostly Cloudy 90 32.1 80 26.4 72 72 WNW 8 13 29.88 1012 10 16 N/A
3:35 pm 15:35 Partly Cloudy 90 32.1 79 26.2 71 71 W 6 9 29.85 1011 10 16 N/A
3:55 pm 15:55 Sunny 90 32.1 77 25 66 66 N N/A 29.85 1011 10 16 N/A
4:15 pm 16:15 Sunny 90 32.1 76 24.6 65 65 SSW 5 7 29.85 1011 10 16 N/A
4:35 pm 16:35 Sunny 90 32.1 79 25.9 70 70 SSE 9 15 29.83 1010 10 16 N/A
4:55 pm 16:55 Sunny 84 29.1 75 23.9 74 74 SSE 9 15 29.85 1011 10 16 N/A
5:15 pm 17:15 Sunny 88 31.3 78 25.3 70 70 S 8 13 29.83 1010 10 16 N/A
5:35 pm 17:35 Sunny 87 30.7 76 24.3 69 69 S 7 11 29.85 1011 10 16 N/A
5:55 pm 17:55 Partly Cloudy 85 29.6 75 23.8 71 71 S 8 13 29.83 1010 10 16 N/A
6:15 pm 18:15 Sunny 85 29.2 74 23.3 71 71 S 7 11 29.83 1010 10 16 N/A
6:35 pm 18:35 Sunny 85 29.2 73 22.9 69 69 S 7 11 29.83 1010 10 16 N/A
6:55 pm 18:55 Mostly Cloudy 83 28.6 72 22.4 69 69 W 17 28 29.85 1011 10 16 N/A
7:15 pm 19:15 Cloudy with Heavy Rain 74 23.6 69 20.6 83 83 WSW 13 20 29.88 1012 3 5 N/A
7:35 pm 19:35 Mostly Cloudy 74 23.6 69 20.8 84 84 WSW 8 13 29.88 1012 10 16 N/A
7:55 pm 19:55 Mostly Cloudy 74 23.6 69 20.6 83 83 N N/A 29.88 1012 10 16 N/A
8:15 pm 20:15 Cloudy 77 25.1 71 21.7 81 81 N 3 6 29.88 1012 10 16 N/A
8:35 pm 20:35 Partly Cloudy 75 24.1 70 21.1 83 83 N N/A 29.88 1012 10 16 N/A
8:55 pm 20:55 Sunny 76 24.2 70 21.3 84 84 N N/A 29.88 1012 10 16 N/A
9:15 pm 21:15 Mostly Cloudy 75 23.9 71 21.4 86 86 N N/A 29.88 1012 10 16 N/A
9:35 pm 21:35 Cloudy 74 23.6 70 21.2 86 86 N N/A 29.88 1012 10 16 N/A
9:55 pm 21:55 Mostly Cloudy 74 23.6 70 21.2 86 86 N N/A 29.91 1013 10 16 N/A
10:15 pm 22:15 Partly Cloudy 74 23.6 71 21.5 88 88 N N/A 29.91 1013 10 16 N/A
10:35 pm 22:35 Partly Cloudy 74 23.6 71 21.6 89 89 N N/A 29.91 1013 10 16 N/A
10:55 pm 22:55 Partly Cloudy 74 23.6 71 21.7 89 89 N N/A 29.91 1013 10 16 N/A
11:15 pm 23:15 Mostly Cloudy 74 23.6 71 21.8 90 90 N N/A 29.91 1013 10 16 N/A
11:35 pm 23:35 Cloudy 74 23.6 71 21.7 89 89 N N/A 29.91 1013 10 16 N/A
11:55 pm 23:55 Cloudy 74 23.6 71 21.7 89 89 N N/A 29.91 1013 10 16 N/A

Powered by AerisWeather